Погода в Кастель-Пладжа-де-Аро

Испания     41°49′02″N   3°03′59″E
темп.,
°C
ветер,
м/с
пор.,
м/с
влажн.,
%
обл.,
%
осадки,
мм/ч
давл.,
гПа
погр.,
м
17 апреля, сб
сб1723:00+8с4954100 0.0 1019488
02:00+8сз4862100 0.0 1019548
05:00+6сз48730 0.0 1017315
08:00+6сз22721 0.0 101883
11:00+11ююв0246100 0.0 10171048
14:00+10ссв3353100 0.3 10171321
17:00+9ссв0362100 1.0 10171022
20:00+9зюз466998 1.1 1016297
18 апреля, вс
вс1823:00+8зюз2276100 0.0 1018143
02:00+7з338187 0.0 1018120
05:00+6сз227810 0.0 101855
08:00+6зсз33685 0.0 101994
11:00+13юз12420 0.0 1019721
14:00+13ююз665858 0.0 1019728
17:00+13ю435531 0.1 10191130
20:00+12ю346458 0.1 1020336
19 апреля, пн
пн1923:00+10зюз237585 0.0 1021175
02:00+8зсз22785 0.0 102053
05:00+8з22765 0.0 101954
08:00+8зсз22745 0.0 101964
11:00+14ююз21575 0.0 1018684
14:00+14ююв436021 0.0 1018913
17:00+14юв44664 0.0 1016787
20:00+13ю238319 0.0 1016195
20 апреля, вт
вт2023:00+11зюз239198 0.0 101789
02:00+10зсз119099 0.0 101638
05:00+10ссз1187100 0.0 101532
08:00+11с118370 0.0 101548
11:00+14в2268100 0.0 1015627
14:00+15вюв4364100 0.6 1014874
17:00+15юв546515 0.1 1014889
20:00+13вюв227095 0.1 1015152
21 апреля, ср
ср2123:00+12с117262 0.0 101653
02:00+11с227352 0.0 101639
05:00+11ссв237683 0.0 101672
08:00+11ссв2378100 0.0 1016148
11:00+13св5681100 0.4 1018465
14:00+12ссв468298 0.8 1018366
17:00+13с357052 0.0 1018532
20:00+13ююв117234 0.0 101821